M I D A S
Marine Information and Data Acquisition System
Tripno 1216 of the Zeeleeuw from 2007-02-22 07:44:22 to 2007-02-22 15:07:47
Back to CruiseResearch ActivitiesStationsMapUnderway DataData graphs

EquipmentUnitsComments
TimeDGPSUTC
LatitudeDGPSDM.mWGS84
LongitudeDGPSDM.mWGS84
SpeedMeteo Stationm/sRelative wind speed
DirectionMeteo StationdegRelative wind direction
TemperatureMeteo Stationdeg CelciusAir temperature
PressureMeteo StationPaAtmospheric pressure
HumidityMeteo Station%Relative humidity
Missing or incorrect values are displayed as -999
Metereological data collected by the RV Zeeleeuw from 2007-02-22 07:45:23 to 2007-02-22 15:16:21
Time Latitude Longitude Speed Direction Temperature Pressure Humidity
2007-02-22 07:46 51°13.617 2°56.028 1.3 20 5.9 100800 92
2007-02-22 07:47 51°13.653 2°55.915 3.3 359 5.9 100800 92
2007-02-22 07:48 51°13.698 2°55.809 3.7 7 5.9 100800 92
2007-02-22 07:49 51°13.755 2°55.724 1.8 4 5.9 100800 92
2007-02-22 07:50 51°13.833 2°55.652 1.7 282 5.9 100800 92
2007-02-22 07:51 51°13.868 2°55.618 3.7 286 5.9 100800 92
2007-02-22 07:52 51°13.913 2°55.612 1.8 282 6 100800 92
2007-02-22 07:53 51°13.962 2°55.615 3.6 285 6 100810 92
2007-02-22 07:54 51°13.967 2°55.542 2.3 81 6.1 100800 92
2007-02-22 07:55 51°14.056 2°55.465 2.3 283 6.1 100800 92
2007-02-22 07:56 51°14.228 2°55.328 3.2 281 6.1 100800 92
2007-02-22 07:57 51°14.343 2°55.103 3.6 286 6.1 100800 92
2007-02-22 07:58 51°14.489 2°54.847 6.3 284 6.1 100790 92
2007-02-22 07:59 51°14.667 2°54.624 5.8 282 6.1 100800 92
2007-02-22 08:00 51°14.833 2°54.368 6.1 279 6.2 100780 92
2007-02-22 08:01 51°14.991 2°54.103 7.2 -999 6.2 100780 92
2007-02-22 08:02 51°15.15 2°53.841 5.7 283 6.2 100780 92
2007-02-22 08:03 51°15.317 2°53.591 5.7 284 6.3 100780 92
2007-02-22 08:04 51°15.51 2°53.405 3.1 280 6.3 100790 92
2007-02-22 08:05 51°15.72 2°53.294 3.5 280 6.3 100790 92
2007-02-22 08:06 51°15.929 2°53.182 2.8 75 6.4 100790 92
2007-02-22 08:07 51°16.139 2°53.071 2.4 284 6.4 100790 92
2007-02-22 08:08 51°16.348 2°52.956 2.5 -999 6.4 100780 92
2007-02-22 08:09 51°16.557 2°52.841 2.4 80 6.5 100780 92
2007-02-22 08:10 51°16.767 2°52.73 2.7 79 6.5 100780 92
2007-02-22 08:11 51°16.974 2°52.618 1.6 278 6.6 100780 92
2007-02-22 08:12 51°17.185 2°52.507 3.3 80 6.6 100780 92
2007-02-22 08:13 51°17.394 2°52.385 3.9 -999 6.6 100780 92
2007-02-22 08:14 51°17.551 2°52.138 8.4 285 6.7 100770 92
2007-02-22 08:15 51°17.638 2°51.805 10.7 280 6.7 100760 92
2007-02-22 08:16 51°17.734 2°51.475 9.1 282 6.7 100750 92
2007-02-22 08:17 51°17.834 2°51.144 10.5 283 6.7 100760 91
2007-02-22 08:18 51°17.935 2°50.812 8.1 280 6.7 100750 91
2007-02-22 08:19 51°18.037 2°50.482 10.7 278 6.7 100760 91
2007-02-22 08:20 51°18.137 2°50.152 9.5 285 6.7 100750 91
2007-02-22 08:21 51°18.233 2°49.819 10.6 -999 6.7 100760 91
2007-02-22 08:22 51°18.331 2°49.487 10.4 287 6.7 100750 91
2007-02-22 08:23 51°18.43 2°49.156 8.8 285 6.7 100750 92
2007-02-22 08:24 51°18.528 2°48.82 11.4 282 6.7 100750 92
2007-02-22 08:25 51°18.626 2°48.48 7.7 286 6.7 100760 92
2007-02-22 08:26 51°18.724 2°48.14 8.8 278 6.7 100750 92
2007-02-22 08:27 51°18.817 2°47.801 8.9 279 6.7 100750 92
2007-02-22 08:28 51°18.908 2°47.461 9.9 279 6.7 100740 92
2007-02-22 08:29 51°18.997 2°47.121 9.1 282 6.7 100750 92
2007-02-22 08:30 51°19.085 2°46.781 10 280 6.7 100740 92
2007-02-22 08:31 51°19.174 2°46.441 9.7 285 6.8 100740 92
2007-02-22 08:32 51°19.265 2°46.101 8.9 282 6.7 100740 92
2007-02-22 08:33 51°19.355 2°45.761 10 283 6.7 100740 92
2007-02-22 08:34 51°19.451 2°45.421 10.2 281 6.7 100740 92
2007-02-22 08:35 51°19.551 2°45.078 11.4 281 6.8 100730 93
2007-02-22 08:36 51°19.647 2°44.737 10.7 279 6.8 100730 93
2007-02-22 08:37 51°19.741 2°44.4 11.8 282 6.8 100740 93
2007-02-22 08:38 51°19.836 2°44.063 10 282 6.8 100740 92
2007-02-22 08:39 51°19.93 2°43.728 8.7 281 6.8 100740 92
2007-02-22 08:40 51°20.025 2°43.393 8.5 283 6.9 100750 93
2007-02-22 08:41 51°20.121 2°43.058 11.5 282 6.9 100740 92
2007-02-22 08:42 51°20.217 2°42.721 8 286 6.9 100730 92
2007-02-22 08:43 51°20.313 2°42.383 10.1 278 7 100740 93
2007-02-22 08:44 51°20.41 2°42.044 11.1 281 7 100740 92
2007-02-22 08:45 51°20.509 2°41.704 12.4 281 7 100730 92
2007-02-22 08:46 51°20.605 2°41.365 8.8 -999 7 100730 92
2007-02-22 08:47 51°20.703 2°41.028 9.8 281 7 100720 92
2007-02-22 08:48 51°20.747 2°40.671 12.8 283 7 100710 92
2007-02-22 08:49 51°20.769 2°40.306 11.9 -999 7.1 100700 92
2007-02-22 08:50 51°20.793 2°39.939 12 283 7 100690 92
2007-02-22 08:51 51°20.818 2°39.57 11.3 286 7.1 100700 92
2007-02-22 08:52 51°20.845 2°39.201 13 281 7.1 100710 92
2007-02-22 08:53 51°20.865 2°38.832 12.1 283 7.1 100700 92
2007-02-22 08:54 51°20.879 2°38.46 11.4 286 7.1 100710 92
2007-02-22 08:55 51°20.895 2°38.088 12.9 279 7.1 100700 92
2007-02-22 08:56 51°20.911 2°37.715 14.1 -999 7.1 100700 92
2007-02-22 08:57 51°20.927 2°37.342 11.9 281 7.1 100690 92
2007-02-22 08:58 51°20.941 2°36.968 13.7 -999 7.1 100710 92
2007-02-22 08:59 51°20.958 2°36.593 11.6 278 7.1 100700 92
2007-02-22 09:00 51°20.974 2°36.218 11.8 -999 7.1 100690 92
2007-02-22 09:01 51°20.989 2°35.844 12.4 277 7.1 100690 92
2007-02-22 09:02 51°21.005 2°35.47 13.5 282 7.2 100700 92
2007-02-22 09:03 51°21.019 2°35.096 15.1 279 7.2 100680 92
2007-02-22 09:04 51°21.035 2°34.721 11.8 -999 7.3 100690 92
2007-02-22 09:05 51°21.05 2°34.346 13.6 283 7.3 100680 92
2007-02-22 09:06 51°21.067 2°33.97 14 283 7.3 100670 92
2007-02-22 09:07 51°21.083 2°33.593 12.4 284 7.4 100670 92
2007-02-22 09:08 51°21.099 2°33.219 12.6 282 7.4 100680 91
2007-02-22 09:09 51°21.187 2°32.887 12.1 284 7.4 100700 92
2007-02-22 09:10 51°21.374 2°32.715 2.5 80 7.4 100720 91
2007-02-22 09:11 51°21.592 2°32.717 3 79 7.4 100720 91
2007-02-22 09:12 51°21.815 2°32.714 2.4 79 7.5 100720 91
2007-02-22 09:13 51°22.039 2°32.698 2.6 79 7.7 100720 91
2007-02-22 09:14 51°22.262 2°32.676 1.7 -999 7.8 100720 91
2007-02-22 09:15 51°22.481 2°32.647 2.3 41 7.8 100720 90
2007-02-22 09:16 51°22.689 2°32.563 6.7 281 8 100720 91
2007-02-22 09:17 51°22.822 2°32.279 12.5 285 7.9 100720 88
2007-02-22 09:18 51°22.827 2°31.909 15.5 283 7.8 100680 88
2007-02-22 09:19 51°22.793 2°31.536 16.5 281 7.7 100660 88
2007-02-22 09:20 51°22.774 2°31.155 15.3 286 7.7 100670 88
2007-02-22 09:21 51°22.761 2°30.772 15.5 282 7.7 100670 88
2007-02-22 09:22 51°22.747 2°30.392 15.8 286 7.6 100670 88
2007-02-22 09:23 51°22.73 2°30.015 14.7 283 7.6 100660 89
2007-02-22 09:24 51°22.71 2°29.638 16.7 282 7.5 100660 89
2007-02-22 09:25 51°22.689 2°29.261 14.2 284 7.5 100650 89
2007-02-22 09:26 51°22.667 2°28.881 13.7 286 7.5 100670 89
2007-02-22 09:27 51°22.648 2°28.503 16.1 282 7.5 100660 89
2007-02-22 09:28 51°22.629 2°28.124 14.7 -999 7.5 100660 89
2007-02-22 09:29 51°22.609 2°27.745 14.7 284 7.5 100670 90
2007-02-22 09:30 51°22.591 2°27.363 13.7 -999 7.5 100660 90
2007-02-22 09:31 51°22.575 2°26.98 13.8 -999 7.5 100680 90
2007-02-22 09:32 51°22.558 2°26.6 12.5 286 7.5 100650 90
2007-02-22 09:33 51°22.542 2°26.219 13.4 -999 7.5 100650 90
2007-02-22 09:34 51°22.526 2°25.838 15.7 283 7.5 100680 90
2007-02-22 09:35 51°22.513 2°25.456 13.1 285 7.5 100650 90
2007-02-22 09:36 51°22.596 2°25.115 5.5 277 7.4 100690 90
2007-02-22 09:37 51°22.795 2°24.997 2 43 7.5 100710 90
2007-02-22 09:38 51°23 2°25.044 5.5 40 7.5 100700 90
2007-02-22 09:39 51°23.199 2°25.126 7.6 33 7.5 100700 90
2007-02-22 09:40 51°23.394 2°25.216 5.4 34 7.5 100700 90
2007-02-22 09:41 51°23.589 2°25.307 5.9 29 7.4 100690 90
2007-02-22 09:42 51°23.782 2°25.406 3.8 27 7.4 100700 90
2007-02-22 09:43 51°23.985 2°25.486 5.2 36 7.4 100700 90
2007-02-22 09:44 51°24.19 2°25.561 4.5 42 7.4 100700 90
2007-02-22 09:45 51°24.392 2°25.63 4.7 30 7.4 100700 90
2007-02-22 09:46 51°24.596 2°25.686 4.3 44 7.5 100700 90
2007-02-22 09:47 51°24.797 2°25.745 5.3 43 7.5 100700 90
2007-02-22 09:48 51°24.997 2°25.803 6.6 44 7.5 100700 90
2007-02-22 09:49 51°25.198 2°25.868 4.6 38 7.5 100710 90
2007-02-22 09:50 51°25.399 2°25.933 5.7 73 7.6 100700 90
2007-02-22 09:51 51°25.602 2°25.993 3.4 45 7.6 100700 90
2007-02-22 09:52 51°25.806 2°26.049 4.1 29 7.6 100700 90
2007-02-22 09:53 51°26.007 2°26.115 5.2 41 7.6 100700 90
2007-02-22 09:54 51°26.208 2°26.17 4.8 45 7.6 100700 90
2007-02-22 09:55 51°26.412 2°26.233 3.8 27 7.7 100700 90
2007-02-22 09:56 51°26.616 2°26.296 3.2 45 7.6 100700 90
2007-02-22 09:57 51°26.821 2°26.357 6 44 7.7 100700 91
2007-02-22 09:58 51°27.029 2°26.431 4.3 35 7.7 100700 90
2007-02-22 09:59 51°27.229 2°26.487 5.9 35 7.7 100700 90
2007-02-22 10:00 51°27.427 2°26.547 5.3 41 7.6 100700 90
2007-02-22 10:01 51°27.63 2°26.609 4.7 32 7.6 100700 90
2007-02-22 10:02 51°27.831 2°26.678 5.9 43 7.7 100700 91
2007-02-22 10:03 51°28.031 2°26.746 4.2 35 7.7 100700 90
2007-02-22 10:04 51°28.232 2°26.812 5.7 42 7.7 100700 90
2007-02-22 10:05 51°28.435 2°26.877 5.8 39 7.7 100700 90
2007-02-22 10:06 51°28.636 2°26.942 4.1 -999 7.7 100710 90
2007-02-22 10:07 51°28.838 2°26.954 5.7 80 7.7 100700 90
2007-02-22 10:08 51°28.972 2°26.702 11.6 306 7.7 100700 90
2007-02-22 10:09 51°29.007 2°26.343 12.3 285 7.8 100670 90
2007-02-22 10:10 51°29.056 2°25.984 12.7 308 7.8 100670 90
2007-02-22 10:11 51°29.108 2°25.629 10.7 284 7.8 100680 90
2007-02-22 10:12 51°29.165 2°25.278 12.6 308 7.8 100670 90
2007-02-22 10:13 51°29.219 2°24.929 11.4 -999 7.8 100660 90
2007-02-22 10:14 51°29.274 2°24.575 12.4 303 7.9 100660 90
2007-02-22 10:15 51°29.332 2°24.222 11 -999 7.9 100660 90
2007-02-22 10:16 51°29.395 2°23.87 10 304 7.9 100670 90
2007-02-22 10:17 51°29.53 2°23.61 5.4 80 7.9 100680 90
2007-02-22 10:18 51°29.726 2°23.605 6.1 36 7.9 100690 90
2007-02-22 10:19 51°29.907 2°23.716 6.2 28 7.8 100680 90
2007-02-22 10:20 51°30.083 2°23.861 6.7 29 7.8 100680 90
2007-02-22 10:21 51°30.251 2°24.007 7.7 28 7.9 100690 90
2007-02-22 10:22 51°30.42 2°24.162 5.5 21 7.8 100680 90
2007-02-22 10:23 51°30.588 2°24.314 6.5 30 7.8 100680 90
2007-02-22 10:24 51°30.753 2°24.486 6.3 27 7.8 100680 90
2007-02-22 10:25 51°30.912 2°24.665 8.4 -999 7.8 100680 90
2007-02-22 10:26 51°31.063 2°24.856 8.1 23 7.8 100680 90
2007-02-22 10:27 51°31.214 2°25.052 7.9 22 7.8 100680 91
2007-02-22 10:28 51°31.368 2°25.243 7 25 7.8 100670 90
2007-02-22 10:29 51°31.52 2°25.433 7.9 22 7.8 100670 90
2007-02-22 10:30 51°31.673 2°25.62 6.4 24 7.9 100680 90
2007-02-22 10:31 51°31.829 2°25.804 8.6 21 7.8 100680 90
2007-02-22 10:32 51°31.987 2°25.986 6.9 22 7.9 100680 90
2007-02-22 10:33 51°32.145 2°26.163 7.3 17 7.9 100680 91
2007-02-22 10:34 51°32.301 2°26.341 6.2 23 7.9 100680 90
2007-02-22 10:35 51°32.46 2°26.518 7.7 23 7.9 100690 90
2007-02-22 10:36 51°32.622 2°26.687 6.4 25 7.9 100680 91
2007-02-22 10:37 51°32.782 2°26.866 5.2 21 7.9 100680 90
2007-02-22 10:38 51°32.944 2°27.033 7 29 7.9 100690 90
2007-02-22 10:39 51°33.108 2°27.203 6.8 28 7.9 100680 91
2007-02-22 10:40 51°33.271 2°27.365 4.9 31 7.9 100690 90
2007-02-22 10:41 51°33.437 2°27.526 6.5 33 7.9 100690 90
2007-02-22 10:42 51°33.598 2°27.685 7 25 7.9 100690 90
2007-02-22 10:43 51°33.76 2°27.846 8 34 8 100690 90
2007-02-22 10:44 51°33.923 2°28.008 6.6 25 7.9 100680 90
2007-02-22 10:45 51°34.085 2°28.173 5.9 34 8 100690 90
2007-02-22 10:46 51°34.246 2°28.332 7.8 30 8 100690 90
2007-02-22 10:47 51°34.408 2°28.492 6.4 32 8 100690 90
2007-02-22 10:48 51°34.565 2°28.666 7 30 8 100680 90
2007-02-22 10:49 51°34.729 2°28.841 5.5 38 8 100680 90
2007-02-22 10:50 51°34.889 2°29.004 6.3 33 8.1 100690 90
2007-02-22 10:51 51°35.048 2°29.158 5.9 26 8 100680 90
2007-02-22 10:52 51°35.207 2°29.315 6 31 8 100680 90
2007-02-22 10:53 51°35.367 2°29.481 5.2 36 8.1 100690 90
2007-02-22 10:54 51°35.529 2°29.63 7 37 8.1 100680 89
2007-02-22 10:55 51°35.695 2°29.79 7.1 26 8.1 100680 89
2007-02-22 10:56 51°35.86 2°29.947 6.6 -999 8.1 100680 89
2007-02-22 10:57 51°36.023 2°30.108 6.8 28 8.1 100680 89
2007-02-22 10:58 51°36.183 2°30.277 6.5 -999 8.1 100680 89
2007-02-22 10:59 51°36.349 2°30.446 6.9 27 8.1 100680 89
2007-02-22 11:00 51°36.512 2°30.609 7.4 33 8.2 100690 89
2007-02-22 11:01 51°36.675 2°30.765 8.6 33 8.1 100680 89
2007-02-22 11:02 51°36.837 2°30.933 5.4 -999 8.1 100680 88
2007-02-22 11:03 51°36.999 2°31.097 7.7 32 8.1 100680 88
2007-02-22 11:04 51°37.158 2°31.261 5.9 -999 8.1 100680 88
2007-02-22 11:05 51°37.318 2°31.411 6.8 28 8.2 100680 89
2007-02-22 11:06 51°37.478 2°31.567 5.3 -999 8.2 100690 89
2007-02-22 11:07 51°37.643 2°31.724 7.2 34 8.2 100670 89
2007-02-22 11:08 51°37.801 2°31.888 6.9 -999 8.2 100670 89
2007-02-22 11:09 51°37.959 2°32.043 5.5 26 8.2 100680 89
2007-02-22 11:10 51°38.118 2°32.207 5.1 -999 8.2 100680 89
2007-02-22 11:11 51°38.277 2°32.358 6.6 36 8.2 100680 89
2007-02-22 11:12 51°38.437 2°32.514 6.2 29 8.2 100680 89
2007-02-22 11:13 51°38.597 2°32.67 8.4 40 8.3 100680 89
2007-02-22 11:14 51°38.76 2°32.823 6.5 -999 8.3 100670 89
2007-02-22 11:15 51°38.922 2°32.978 7 36 8.3 100670 88
2007-02-22 11:16 51°39.084 2°33.134 6.4 -999 8.3 100670 89
2007-02-22 11:17 51°39.243 2°33.291 7.1 35 8.3 100670 88
2007-02-22 11:18 51°39.407 2°33.455 6.5 -999 8.3 100670 88
2007-02-22 11:19 51°39.569 2°33.618 6.9 31 8.3 100670 89
2007-02-22 11:20 51°39.731 2°33.782 7.1 37 8.3 100640 89
2007-02-22 11:21 51°39.896 2°33.931 4.5 37 8.3 100650 88
2007-02-22 11:22 51°40.062 2°34.085 6.2 -999 8.3 100640 88
2007-02-22 11:23 51°40.227 2°34.239 6.3 25 8.3 100670 89
2007-02-22 11:24 51°40.391 2°34.392 5.7 -999 8.3 100640 88
2007-02-22 11:25 51°40.561 2°34.524 4.2 28 8.3 100650 88
2007-02-22 11:26 51°40.733 2°34.654 7 -999 8.4 100680 89
2007-02-22 11:27 51°40.907 2°34.776 5.7 39 8.3 100640 88
2007-02-22 11:28 51°41.081 2°34.911 6.3 37 8.3 100650 88
2007-02-22 11:29 51°41.254 2°35.043 4.4 34 8.3 100640 88
2007-02-22 11:30 51°41.425 2°35.178 5.9 34 8.3 100640 88
2007-02-22 11:31 51°41.553 2°35.395 11.3 11 8.3 100640 88
2007-02-22 11:32 51°41.525 2°35.692 16.4 358 8.4 100600 88
2007-02-22 11:33 51°41.428 2°35.98 17.1 360 8.3 100570 88
2007-02-22 11:34 51°41.328 2°36.261 14.2 358 8.3 100560 88
2007-02-22 11:35 51°41.223 2°36.539 15.4 357 8.4 100570 88
2007-02-22 11:36 51°41.125 2°36.828 15.6 -999 8.4 100570 88
2007-02-22 11:37 51°41.021 2°37.121 15.5 356 8.4 100580 88
2007-02-22 11:38 51°40.917 2°37.412 14.3 357 8.4 100570 88
2007-02-22 11:39 51°40.815 2°37.705 15.3 357 8.4 100590 88
2007-02-22 11:40 51°40.713 2°37.999 16 359 8.4 100580 88
2007-02-22 11:41 51°40.608 2°38.29 16.3 -999 8.4 100570 88
2007-02-22 11:42 51°40.499 2°38.578 15.4 357 8.4 100580 88
2007-02-22 11:43 51°40.39 2°38.867 15.8 359 8.4 100590 88
2007-02-22 11:44 51°40.281 2°39.153 14.8 357 8.4 100590 88
2007-02-22 11:45 51°40.172 2°39.442 15.7 -999 8.4 100580 88
2007-02-22 11:46 51°40.063 2°39.727 15.7 354 8.5 100570 87
2007-02-22 11:47 51°39.958 2°40.013 16.3 355 8.5 100570 87
2007-02-22 11:48 51°39.853 2°40.3 16.9 356 8.4 100570 88
2007-02-22 11:49 51°39.75 2°40.587 16.1 356 8.4 100590 88
2007-02-22 11:50 51°39.643 2°40.872 16.6 -999 8.5 100570 88
2007-02-22 11:51 51°39.539 2°41.157 16.6 356 8.5 100570 88
2007-02-22 11:52 51°39.434 2°41.438 15.6 -999 8.5 100570 87
2007-02-22 11:53 51°39.33 2°41.72 16.1 359 8.5 100550 87
2007-02-22 11:54 51°39.227 2°42.005 15.4 357 8.5 100580 87
2007-02-22 11:55 51°39.107 2°42.281 16.3 350 8.6 100580 87
2007-02-22 11:56 51°38.898 2°42.383 18.7 280 8.6 100630 87
2007-02-22 11:57 51°38.661 2°42.303 19 282 8.6 100630 87
2007-02-22 11:58 51°38.433 2°42.225 18.2 283 8.7 100620 86
2007-02-22 11:59 51°38.199 2°42.157 19.3 280 8.7 100630 86
2007-02-22 12:00 51°37.962 2°42.104 16.9 282 8.7 100620 86
2007-02-22 12:01 51°37.726 2°42.053 15.8 282 8.7 100610 86
2007-02-22 12:02 51°37.485 2°42.004 18.7 281 8.7 100620 86
2007-02-22 12:03 51°37.281 2°41.837 14.8 283 8.7 100600 86
2007-02-22 12:04 51°37.191 2°41.487 14.3 -999 8.7 100570 86
2007-02-22 12:05 51°37.193 2°41.112 14.1 -999 8.7 100600 87
2007-02-22 12:06 51°37.221 2°40.737 12.8 281 8.7 100600 87
2007-02-22 12:07 51°37.251 2°40.365 12.1 -999 8.7 100600 87
2007-02-22 12:08 51°37.286 2°39.99 13.7 286 8.7 100610 87
2007-02-22 12:09 51°37.317 2°39.632 12.2 283 8.7 100600 87
2007-02-22 12:10 51°37.348 2°39.268 15.4 285 8.7 100570 87
2007-02-22 12:11 51°37.378 2°38.905 11.8 282 8.8 100600 87
2007-02-22 12:12 51°37.407 2°38.542 11.3 284 8.7 100600 87
2007-02-22 12:13 51°37.436 2°38.174 11.7 278 8.7 100580 87
2007-02-22 12:14 51°37.467 2°37.82 12.9 282 8.8 100580 87
2007-02-22 12:15 51°37.493 2°37.451 12.5 282 8.8 100570 87
2007-02-22 12:16 51°37.513 2°37.099 12.8 281 8.8 100580 87
2007-02-22 12:17 51°37.535 2°36.727 11.4 280 8.8 100570 87
2007-02-22 12:18 51°37.551 2°36.36 13.3 283 8.8 100570 87
2007-02-22 12:19 51°37.568 2°35.996 12.9 285 8.8 100580 87
2007-02-22 12:20 51°37.587 2°35.621 15.3 284 8.8 100580 87
2007-02-22 12:21 51°37.605 2°35.251 10.3 277 8.8 100560 87
2007-02-22 12:22 51°37.629 2°34.875 12.9 284 8.8 100570 87
2007-02-22 12:23 51°37.654 2°34.507 12.7 286 8.8 100560 87
2007-02-22 12:24 51°37.665 2°34.126 14.9 285 8.9 100560 87
2007-02-22 12:25 51°37.542 2°33.824 15.8 284 8.9 100550 87
2007-02-22 12:26 51°37.321 2°33.74 18.1 282 8.9 100590 87
2007-02-22 12:27 51°37.09 2°33.675 17.1 282 8.9 100590 87
2007-02-22 12:28 51°36.867 2°33.564 17.8 282 8.9 100580 87
2007-02-22 12:29 51°36.644 2°33.453 17 280 8.9 100570 87
2007-02-22 12:30 51°36.426 2°33.342 17 282 8.9 100560 86
2007-02-22 12:31 51°36.205 2°33.227 16.4 280 9 100570 87
2007-02-22 12:32 51°35.983 2°33.114 18.2 282 8.9 100570 87
2007-02-22 12:33 51°35.758 2°33.001 17.2 281 8.9 100570 86
2007-02-22 12:34 51°35.54 2°32.891 18.2 -999 8.9 100580 86
2007-02-22 12:35 51°35.318 2°32.78 17.5 284 9 100570 87
2007-02-22 12:36 51°35.093 2°32.667 17.7 281 9 100580 86
2007-02-22 12:37 51°34.872 2°32.553 18.2 282 9 100570 87
2007-02-22 12:38 51°34.657 2°32.44 16.9 282 9 100570 87
2007-02-22 12:39 51°34.436 2°32.331 15.9 282 9 100570 87
2007-02-22 12:40 51°34.211 2°32.224 16.3 284 8.9 100560 87
2007-02-22 12:41 51°33.994 2°32.116 16.8 282 8.9 100560 87
2007-02-22 12:42 51°33.772 2°32.01 17.5 283 8.9 100550 87
2007-02-22 12:43 51°33.546 2°31.908 15.6 280 8.9 100550 87
2007-02-22 12:44 51°33.324 2°31.81 16.2 284 9 100560 87
2007-02-22 12:45 51°33.102 2°31.713 16.6 281 9 100570 87
2007-02-22 12:46 51°32.885 2°31.617 17.4 282 9 100580 87
2007-02-22 12:47 51°32.658 2°31.521 16.7 280 9 100580 87
2007-02-22 12:48 51°32.437 2°31.427 17 283 9 100580 88
2007-02-22 12:49 51°32.208 2°31.33 16.2 281 9 100570 88
2007-02-22 12:50 51°31.985 2°31.337 16 281 9 100580 88
2007-02-22 12:51 51°31.773 2°31.471 13.8 281 9 100560 88
2007-02-22 12:52 51°31.591 2°31.671 15.4 340 9 100540 88
2007-02-22 12:53 51°31.4 2°31.852 14.1 285 9 100550 88
2007-02-22 12:54 51°31.205 2°32.025 15.2 280 9 100550 88
2007-02-22 12:55 51°31.014 2°32.195 15.2 340 9 100560 88
2007-02-22 12:56 51°30.817 2°32.366 14.1 285 9 100560 88
2007-02-22 12:57 51°30.627 2°32.533 15.6 284 9 100560 88
2007-02-22 12:58 51°30.428 2°32.705 15.3 283 9 100550 88
2007-02-22 12:59 51°30.236 2°32.87 15.7 338 9 100550 89
2007-02-22 13:00 51°30.044 2°33.041 14.1 280 9 100560 89
2007-02-22 13:01 51°29.846 2°33.209 13.8 340 9 100560 89
2007-02-22 13:02 51°29.715 2°33.461 13.5 353 9 100540 89
2007-02-22 13:03 51°29.717 2°33.784 10.1 -999 9 100540 89
2007-02-22 13:04 51°29.741 2°34.098 8.2 3 8.9 100540 89
2007-02-22 13:05 51°29.742 2°34.298 7.3 10 8.9 100580 89
2007-02-22 13:06 51°29.741 2°34.426 10.1 16 8.9 100590 89
2007-02-22 13:07 51°29.739 2°34.514 9 17 8.9 100590 89
2007-02-22 13:08 51°29.733 2°34.576 9.3 19 9 100600 89
2007-02-22 13:09 51°29.725 2°34.62 8.5 18 8.9 100590 89
2007-02-22 13:10 51°29.717 2°34.65 8.5 12 9 100590 90
2007-02-22 13:11 51°29.708 2°34.668 9.2 11 9 100580 90
2007-02-22 13:12 51°29.703 2°34.845 7 4 9 100560 90
2007-02-22 13:13 51°29.732 2°35.134 9.1 3 9 100560 90
2007-02-22 13:14 51°29.75 2°35.444 10.5 -999 8.9 100560 90
2007-02-22 13:15 51°29.758 2°35.759 10.9 358 9 100560 90
2007-02-22 13:16 51°29.76 2°36.075 11 357 9 100560 90
2007-02-22 13:17 51°29.757 2°36.396 11.4 1 9 100560 89
2007-02-22 13:18 51°29.754 2°36.709 11.5 359 9 100560 89
2007-02-22 13:19 51°29.749 2°37.034 10.8 357 9 100550 89
2007-02-22 13:20 51°29.743 2°37.346 10.4 357 8.9 100550 89
2007-02-22 13:21 51°29.736 2°37.662 11.7 358 9 100560 89
2007-02-22 13:22 51°29.721 2°37.972 11.5 353 9 100550 89
2007-02-22 13:23 51°29.594 2°38.207 15.6 283 9 100560 89
2007-02-22 13:24 51°29.395 2°38.286 14 331 9 100570 89
2007-02-22 13:25 51°29.19 2°38.322 14.3 282 9 100560 89
2007-02-22 13:26 51°28.98 2°38.412 14 334 9.1 100550 88
2007-02-22 13:27 51°28.779 2°38.492 14.3 283 9.1 100550 88
2007-02-22 13:28 51°28.573 2°38.576 14.6 281 9.1 100560 88
2007-02-22 13:29 51°28.374 2°38.658 14 334 9.1 100550 88
2007-02-22 13:30 51°28.173 2°38.741 15 278 9.1 100560 88
2007-02-22 13:31 51°27.968 2°38.825 14.1 333 9.1 100560 88
2007-02-22 13:32 51°27.769 2°38.907 14.3 281 9.1 100550 88
2007-02-22 13:33 51°27.564 2°38.994 14.2 337 9.1 100560 88
2007-02-22 13:34 51°27.366 2°39.077 14.1 283 9.1 100560 88
2007-02-22 13:35 51°27.161 2°39.163 12.8 334 9.1 100570 88
2007-02-22 13:36 51°26.963 2°39.246 14.7 282 9.1 100560 88
2007-02-22 13:37 51°26.763 2°39.333 13.8 333 9.2 100550 88
2007-02-22 13:38 51°26.562 2°39.418 13.6 285 9.2 100550 88
2007-02-22 13:39 51°26.363 2°39.506 13.7 335 9.2 100540 87
2007-02-22 13:40 51°26.163 2°39.594 13.5 281 9.2 100540 87
2007-02-22 13:41 51°25.964 2°39.683 13.6 334 9.2 100540 87
2007-02-22 13:42 51°25.765 2°39.773 13.5 285 9.2 100540 87
2007-02-22 13:43 51°25.566 2°39.86 12.9 335 9.3 100540 87
2007-02-22 13:44 51°25.366 2°39.947 14.2 281 9.3 100540 87
2007-02-22 13:45 51°25.168 2°40.036 15.3 334 9.3 100540 87
2007-02-22 13:46 51°24.967 2°40.13 14.3 285 9.3 100540 87
2007-02-22 13:47 51°24.771 2°40.222 15.1 334 9.3 100540 87
2007-02-22 13:48 51°24.581 2°40.32 15.1 281 9.4 100540 86
2007-02-22 13:49 51°24.388 2°40.418 14.5 336 9.4 100540 86
2007-02-22 13:50 51°24.19 2°40.51 14.9 283 9.4 100540 85
2007-02-22 13:51 51°23.993 2°40.534 13.4 330 9.4 100540 85
2007-02-22 13:52 51°23.793 2°40.558 14.4 281 9.4 100550 86
2007-02-22 13:53 51°23.59 2°40.582 14.1 329 9.4 100540 86
2007-02-22 13:54 51°23.394 2°40.598 13.5 283 9.4 100540 86
2007-02-22 13:55 51°23.193 2°40.616 13.6 331 9.4 100580 86
2007-02-22 13:56 51°22.994 2°40.634 13.8 283 9.4 100540 86
2007-02-22 13:57 51°22.796 2°40.653 14.5 329 9.4 100530 86
2007-02-22 13:58 51°22.598 2°40.682 13.6 280 9.4 100530 86
2007-02-22 13:59 51°22.495 2°40.498 10.4 309 9.4 100500 86
2007-02-22 14:00 51°22.442 2°40.219 11.4 279 9.4 100510 85
2007-02-22 14:01 51°22.323 2°40.002 12.9 307 9.4 100500 85
2007-02-22 14:02 51°22.146 2°40.02 13.1 279 9.5 100510 85
2007-02-22 14:03 51°21.966 2°40.149 13.8 332 9.6 100520 85
2007-02-22 14:04 51°21.773 2°40.26 13.4 332 9.5 100520 85
2007-02-22 14:05 51°21.582 2°40.358 12.5 331 9.5 100510 85
2007-02-22 14:06 51°21.39 2°40.441 14.3 332 9.5 100510 86
2007-02-22 14:07 51°21.199 2°40.529 13.9 332 9.4 100520 86
2007-02-22 14:08 51°21.01 2°40.611 13.5 330 9.4 100520 86
2007-02-22 14:09 51°20.819 2°40.71 13.8 333 9.4 100530 86
2007-02-22 14:10 51°20.647 2°40.866 13.5 337 9.4 100520 86
2007-02-22 14:11 51°20.523 2°41.128 11.6 348 9.4 100510 86
2007-02-22 14:12 51°20.473 2°41.466 10.8 281 9.4 100520 86
2007-02-22 14:13 51°20.41 2°41.805 11.3 346 9.4 100520 87
2007-02-22 14:14 51°20.333 2°42.139 11.5 282 9.4 100510 87
2007-02-22 14:15 51°20.255 2°42.467 12.2 343 9.4 100500 87
2007-02-22 14:16 51°20.17 2°42.798 12 282 9.4 100510 87
2007-02-22 14:17 51°20.091 2°43.109 12.7 346 9.5 100500 86
2007-02-22 14:18 51°20.012 2°43.425 11.6 283 9.5 100500 86
2007-02-22 14:19 51°19.935 2°43.729 11.8 346 9.6 100510 86
2007-02-22 14:20 51°19.857 2°44.04 12.1 348 9.6 100500 85
2007-02-22 14:21 51°19.778 2°44.353 12.1 345 9.6 100510 85
2007-02-22 14:22 51°19.698 2°44.67 10.8 282 9.6 100500 85
2007-02-22 14:23 51°19.618 2°44.985 12.3 348 9.6 100510 85
2007-02-22 14:24 51°19.538 2°45.303 12.6 348 9.6 100500 85
2007-02-22 14:25 51°19.45 2°45.629 12.5 346 9.6 100510 84
2007-02-22 14:26 51°19.367 2°45.951 13.1 345 9.6 100500 84
2007-02-22 14:27 51°19.282 2°46.28 11.1 347 9.6 100500 84
2007-02-22 14:28 51°19.201 2°46.589 12.2 283 9.6 100500 85
2007-02-22 14:29 51°19.12 2°46.906 12.4 348 9.6 100510 85
2007-02-22 14:30 51°19.037 2°47.217 12.5 349 9.6 100510 85
2007-02-22 14:31 51°18.95 2°47.52 12.2 347 9.6 100510 85
2007-02-22 14:32 51°18.854 2°47.828 13.4 347 9.7 100500 85
2007-02-22 14:33 51°18.76 2°48.132 12.7 278 9.8 100500 84
2007-02-22 14:34 51°18.662 2°48.438 12.3 343 9.8 100510 83
2007-02-22 14:35 51°18.567 2°48.745 14.1 346 9.7 100540 84
2007-02-22 14:36 51°18.468 2°49.061 13.7 346 9.8 100500 84
2007-02-22 14:37 51°18.37 2°49.373 13.8 348 9.9 100500 83
2007-02-22 14:38 51°18.275 2°49.682 12.1 346 9.9 100500 82
2007-02-22 14:39 51°18.181 2°49.99 12.3 280 9.9 100500 83
2007-02-22 14:40 51°18.09 2°50.299 13.4 346 9.9 100500 83
2007-02-22 14:41 51°17.999 2°50.605 12.8 281 9.9 100490 83
2007-02-22 14:42 51°17.913 2°50.907 13.1 345 9.9 100500 82
2007-02-22 14:43 51°17.816 2°51.214 13.7 281 9.9 100500 82
2007-02-22 14:44 51°17.717 2°51.505 12.8 345 10 100500 82
2007-02-22 14:45 51°17.613 2°51.804 12.1 282 10.1 100500 81
2007-02-22 14:46 51°17.479 2°52.048 13.4 338 10.1 100510 81
2007-02-22 14:47 51°17.319 2°52.23 13.7 280 10.1 100510 81
2007-02-22 14:48 51°17.151 2°52.388 13.5 335 10.1 100510 81
2007-02-22 14:49 51°16.985 2°52.545 12.7 283 10.1 100520 81
2007-02-22 14:50 51°16.815 2°52.708 13.8 334 10.2 100510 81
2007-02-22 14:51 51°16.647 2°52.873 13.3 286 10.2 100500 80
2007-02-22 14:52 51°16.481 2°53.048 13.4 333 10.3 100510 80
2007-02-22 14:53 51°16.315 2°53.225 14.5 286 10.4 100510 79
2007-02-22 14:54 51°16.153 2°53.397 14 334 10.4 100510 79
2007-02-22 14:55 51°15.978 2°53.543 15.3 283 10.5 100510 78
2007-02-22 14:56 51°15.805 2°53.667 13.8 330 10.6 100510 77
2007-02-22 14:57 51°15.63 2°53.79 14.5 283 10.7 100510 77
2007-02-22 14:58 51°15.455 2°53.91 12.5 332 10.7 100540 76
2007-02-22 14:59 51°15.279 2°54.028 12.9 282 10.7 100510 77
2007-02-22 15:00 51°15.103 2°54.148 12.8 332 10.7 100510 77
2007-02-22 15:01 51°14.926 2°54.3 13 280 10.7 100510 77
2007-02-22 15:02 51°14.756 2°54.501 13.2 281 10.9 100500 76
2007-02-22 15:03 51°14.591 2°54.723 12.3 334 11 100500 76
2007-02-22 15:04 51°14.427 2°54.96 10.3 283 11.1 100500 75
2007-02-22 15:05 51°14.28 2°55.228 10.3 281 11.1 100510 74
2007-02-22 15:06 51°14.127 2°55.424 10.7 333 11.2 100530 74
2007-02-22 15:07 51°13.988 2°55.522 10.4 280 11.2 100530 74
2007-02-22 15:08 51°13.872 2°55.607 9.9 337 11.2 100520 74
2007-02-22 15:09 51°13.767 2°55.695 8.8 278 11.3 100520 73
2007-02-22 15:10 51°13.689 2°55.812 5.1 343 11.3 100530 73
2007-02-22 15:11 51°13.645 2°55.928 7.6 279 11.2 100540 73
2007-02-22 15:12 51°13.612 2°56.021 3.7 348 11.2 100540 73
2007-02-22 15:13 51°13.605 2°56.076 4.4 2 11.2 100530 74
2007-02-22 15:14 51°13.604 2°56.083 4.1 350 11.2 100530 73
2007-02-22 15:15 51°13.601 2°56.089 3.4 349 11.2 100540 73